User: anonymous   Login
Location: Unspecified
(0.0000°N, 0.0000°E)
Time: 23:16:57
(UTC+00:00)
Language:

STARLINK-5286 - Orbit

View from above orbital plane
View from above orbital plane
View from above satellite
View from above satellite

Ground track
Ground track

The orbit is defined by the following mean orbital elements,

1 55294U          26145.42868975 +.00000000 +00000-0 -18243-4 0 00008
2 55294  69.9992 210.8440 0003468 268.0037  92.0725 14.98329682    04
Epoch (UTC): 25 May 2026 10:17:18
Eccentricity: 0.0003468
inclination: 69.9992°
perigee height: 570 km
apogee height: 574 km
right ascension of ascending node: 210.8440°
argument of perigee: 268.0037°
revolutions per day: 14.98329682
mean anomaly at epoch: 92.0725°

The dashed part of the orbit path shows where the satellite is in the earth's shadow,  

DLR